Time,TemperatureF,DewpointF,PressureIn,WindDirection,WindDirectionDegrees,WindSpeedMPH,WindSpeedGustMPH,Humidity,HourlyPrecipIn,Conditions,Clouds,dailyrainin,SoftwareType,DateUTC
2014-01-18 00:12:00,20.0,15.0,-100.00,WSW,243,4.0,9.0,79,0.00,,,0.20,,2014-01-18 05:12:00,
2014-01-18 00:22:00,20.0,14.0,-100.00,SW,227,4.0,11.0,79,0.00,,,0.20,,2014-01-18 05:22:00,
2014-01-18 00:43:00,20.0,14.0,-100.00,WSW,243,2.0,5.0,78,0.00,,,0.20,,2014-01-18 05:43:00,
2014-01-18 00:53:00,20.0,13.0,-100.00,SSW,205,3.0,5.0,77,0.00,,,0.20,,2014-01-18 05:53:00,
2014-01-18 01:13:00,19.0,13.0,-100.00,SW,234,4.0,6.0,74,0.00,,,0.20,,2014-01-18 06:13:00,
2014-01-18 01:22:00,19.0,13.0,-100.00,WSW,240,4.0,5.0,74,0.00,,,0.20,,2014-01-18 06:22:00,
2014-01-18 01:42:00,19.0,15.0,-100.00,SSW,206,3.0,6.0,84,0.01,,,0.20,,2014-01-18 06:42:00,
2014-01-18 01:52:00,18.0,14.0,-100.00,West,274,3.0,7.0,81,0.00,,,0.20,,2014-01-18 06:52:00,
2014-01-18 02:12:00,18.0,12.0,-100.00,South,185,2.0,4.0,75,0.00,,,0.20,,2014-01-18 07:12:00,
2014-01-18 02:22:00,18.0,9.0,-100.00,SSW,195,5.0,11.0,69,0.00,,,0.20,,2014-01-18 07:22:00,
2014-01-18 02:42:00,18.0,10.0,-100.00,SW,217,1.0,2.0,70,0.00,,,0.20,,2014-01-18 07:42:00,
2014-01-18 02:53:00,18.0,10.0,-100.00,South,175,2.0,4.0,70,0.00,,,0.20,,2014-01-18 07:53:00,
2014-01-18 03:12:00,17.0,9.0,-100.00,WSW,243,4.0,9.0,70,0.00,,,0.20,,2014-01-18 08:12:00,
2014-01-18 03:22:00,17.0,9.0,-100.00,SSW,210,4.0,8.0,70,0.00,,,0.20,,2014-01-18 08:22:00,
2014-01-18 03:42:00,17.0,10.0,-100.00,SW,222,2.0,3.0,72,0.00,,,0.20,,2014-01-18 08:42:00,
2014-01-18 03:52:00,17.0,10.0,-100.00,SE,145,1.0,2.0,74,0.00,,,0.20,,2014-01-18 08:52:00,
2014-01-18 04:12:00,17.0,10.0,-100.00,SSW,200,1.0,2.0,73,0.00,,,0.20,,2014-01-18 09:12:00,
2014-01-18 04:22:00,17.0,10.0,-100.00,SSW,200,1.0,2.0,73,0.00,,,0.20,,2014-01-18 09:22:00,
2014-01-18 04:43:00,16.0,9.0,-100.00,SSW,200,2.0,3.0,73,0.00,,,0.20,,2014-01-18 09:43:00,
2014-01-18 04:53:00,16.0,10.0,-100.00,WSW,246,2.0,3.0,76,0.00,,,0.18,,2014-01-18 09:53:00,
2014-01-18 05:12:00,17.0,11.0,-100.00,SSW,205,1.0,2.0,78,0.00,,,0.15,,2014-01-18 10:12:00,
2014-01-18 05:23:00,16.0,11.0,-100.00,SW,215,2.0,4.0,79,0.03,,,0.16,,2014-01-18 10:23:00,
2014-01-18 05:42:00,16.0,11.0,-100.00,SW,234,2.0,3.0,80,0.00,,,0.16,,2014-01-18 10:42:00,
2014-01-18 05:53:00,16.0,11.0,-100.00,WSW,239,3.0,4.0,79,0.00,,,0.16,,2014-01-18 10:53:00,
2014-01-18 06:11:00,16.0,10.0,-100.00,SSW,205,2.0,2.0,77,0.00,,,0.16,,2014-01-18 11:11:00,
2014-01-18 06:42:00,17.0,9.0,-100.00,SW,215,2.0,3.0,73,0.00,,,0.16,,2014-01-18 11:42:00,
2014-01-18 06:53:00,16.0,9.0,-100.00,SW,216,2.0,3.0,72,0.00,,,0.16,,2014-01-18 11:53:00,
2014-01-18 07:12:00,17.0,9.0,-100.00,SSW,203,2.0,3.0,72,0.00,,,0.16,,2014-01-18 12:12:00,
2014-01-18 07:22:00,17.0,9.0,-100.00,SW,220,4.0,6.0,71,0.00,,,0.16,,2014-01-18 12:22:00,
2014-01-18 07:42:00,17.0,9.0,-100.00,SSW,213,4.0,8.0,73,0.00,,,0.16,,2014-01-18 12:42:00,
2014-01-18 07:52:00,17.0,10.0,-100.00,SSW,206,4.0,6.0,75,0.00,,,0.16,,2014-01-18 12:52:00,
2014-01-18 08:11:00,16.0,11.0,-100.00,SW,222,3.0,6.0,78,0.00,,,0.16,,2014-01-18 13:11:00,
2014-01-18 08:22:00,16.0,11.0,-100.00,SSW,202,3.0,6.0,80,0.00,,,0.16,,2014-01-18 13:22:00,
2014-01-18 08:42:00,16.0,12.0,-100.00,WSW,247,6.0,9.0,82,0.00,,,0.16,,2014-01-18 13:42:00,
2014-01-18 08:52:00,17.0,13.0,-100.00,SW,223,4.0,6.0,85,0.00,,,0.16,,2014-01-18 13:52:00,
2014-01-18 09:11:00,17.0,13.0,-100.00,SSW,203,2.0,3.0,86,0.00,,,0.16,,2014-01-18 14:11:00,
2014-01-18 09:22:00,17.0,14.0,-100.00,SW,216,4.0,6.0,88,0.00,,,0.16,,2014-01-18 14:22:00,
2014-01-18 09:42:00,17.0,13.0,-100.00,SSW,213,6.0,10.0,85,0.00,,,0.16,,2014-01-18 14:42:00,
2014-01-18 09:52:00,18.0,14.0,-100.00,SSW,199,4.0,7.0,84,0.00,,,0.16,,2014-01-18 14:52:00,
2014-01-18 10:12:00,18.0,14.0,-100.00,SW,215,3.0,5.0,83,0.01,,,0.16,,2014-01-18 15:12:00,
2014-01-18 10:22:00,18.0,14.0,-100.00,South,191,4.0,7.0,81,0.00,,,0.16,,2014-01-18 15:22:00,
2014-01-18 10:44:00,19.0,13.0,-100.00,SSW,200,7.0,11.0,79,0.00,,,0.16,,2014-01-18 15:44:00,
2014-01-18 10:53:00,19.0,14.0,-100.00,SW,220,5.0,9.0,79,0.00,,,0.16,,2014-01-18 15:53:00,
2014-01-18 11:13:00,20.0,13.0,-100.00,SSW,210,7.0,11.0,76,0.00,,,0.16,,2014-01-18 16:13:00,
2014-01-18 11:23:00,22.0,16.0,-100.00,SSW,209,4.0,6.0,78,0.00,,,0.16,,2014-01-18 16:23:00,
2014-01-18 11:43:00,23.0,17.0,-100.00,SSE,158,4.0,5.0,77,0.00,,,0.16,,2014-01-18 16:43:00,
2014-01-18 11:52:00,22.0,15.0,-100.00,SSW,198,5.0,8.0,75,0.00,,,0.16,,2014-01-18 16:52:00,
2014-01-18 12:12:00,24.0,16.0,-100.00,SSW,203,4.0,6.0,71,0.00,,,0.16,,2014-01-18 17:12:00,
2014-01-18 12:22:00,24.0,16.0,-100.00,SSW,203,4.0,6.0,71,0.00,,,0.16,,2014-01-18 17:22:00,
2014-01-18 12:42:00,25.0,15.0,-100.00,South,175,5.0,7.0,64,0.00,,,0.16,,2014-01-18 17:42:00,
2014-01-18 12:52:00,25.0,16.0,-100.00,SSW,209,4.0,7.0,68,0.00,,,0.16,,2014-01-18 17:52:00,
2014-01-18 13:12:00,27.0,18.0,-100.00,SW,219,4.0,6.0,68,0.00,,,0.16,,2014-01-18 18:12:00,
2014-01-18 13:22:00,26.0,16.0,-100.00,WSW,239,5.0,8.0,65,0.00,,,0.16,,2014-01-18 18:22:00,
2014-01-18 13:43:00,26.0,16.0,-100.00,SW,219,5.0,8.0,66,0.00,,,0.16,,2014-01-18 18:43:00,
2014-01-18 14:11:00,28.0,15.0,-100.00,South,171,6.0,14.0,58,0.00,,,0.16,,2014-01-18 19:11:00,
2014-01-18 14:22:00,28.0,18.0,-100.00,South,174,8.0,11.0,64,0.00,,,0.16,,2014-01-18 19:22:00,
2014-01-18 14:42:00,29.0,15.0,-100.00,SSE,165,8.0,11.0,55,0.00,,,0.16,,2014-01-18 19:42:00,
2014-01-18 14:52:00,30.0,16.0,-100.00,SW,222,10.0,16.0,55,0.00,,,0.16,,2014-01-18 19:52:00,
2014-01-18 15:12:00,30.0,16.0,-100.00,SSW,203,8.0,10.0,56,0.00,,,0.16,,2014-01-18 20:12:00,
2014-01-18 15:22:00,31.0,16.0,-100.00,SW,219,9.0,16.0,54,0.00,,,0.16,,2014-01-18 20:22:00,
2014-01-18 15:42:00,31.0,14.0,-100.00,SW,232,9.0,14.0,50,0.00,,,0.16,,2014-01-18 20:42:00,
2014-01-18 16:12:00,32.0,16.0,-100.00,SSW,206,8.0,13.0,50,0.00,,,0.16,,2014-01-18 21:12:00,
2014-01-18 16:22:00,33.0,16.0,-100.00,SW,220,7.0,11.0,50,0.00,,,0.16,,2014-01-18 21:22:00,
2014-01-18 16:43:00,32.0,13.0,-100.00,SW,220,7.0,11.0,46,0.00,,,0.16,,2014-01-18 21:43:00,
2014-01-18 16:53:00,32.0,13.0,-100.00,SW,220,7.0,11.0,46,0.00,,,0.16,,2014-01-18 21:53:00,
2014-01-18 17:13:00,32.0,14.0,-100.00,SW,217,6.0,10.0,46,0.00,,,0.16,,2014-01-18 22:13:00,
2014-01-18 17:23:00,30.0,14.0,-100.00,SSW,195,8.0,11.0,49,0.00,,,0.16,,2014-01-18 22:23:00,
2014-01-18 17:43:00,30.0,14.0,-100.00,SW,215,9.0,13.0,51,0.00,,,0.16,,2014-01-18 22:43:00,
2014-01-18 17:53:00,30.0,13.0,-100.00,SSW,208,8.0,13.0,49,0.00,,,0.16,,2014-01-18 22:53:00,
2014-01-18 18:11:00,29.0,14.0,-100.00,SSW,202,8.0,12.0,52,0.00,,,0.16,,2014-01-18 23:11:00,
2014-01-18 18:22:00,29.0,14.0,-100.00,SSW,203,7.0,12.0,54,0.00,,,0.16,,2014-01-18 23:22:00,
2014-01-18 18:42:00,29.0,14.0,-100.00,SSW,206,8.0,14.0,54,0.00,,,0.16,,2014-01-18 23:42:00,
2014-01-18 18:53:00,28.0,15.0,-100.00,SSW,202,7.0,13.0,56,0.00,,,0.16,,2014-01-18 23:53:00,
2014-01-18 19:11:00,28.0,13.0,-100.00,SSW,212,6.0,12.0,52,0.00,,,0.16,,2014-01-19 00:11:00,
2014-01-18 19:22:00,29.0,13.0,-100.00,SW,216,6.0,12.0,51,0.00,,,0.16,,2014-01-19 00:22:00,
2014-01-18 19:42:00,29.0,12.0,-100.00,SSW,212,11.0,17.0,50,0.00,,,0.16,,2014-01-19 00:42:00,
2014-01-18 19:52:00,29.0,13.0,-100.00,SSW,212,7.0,13.0,51,0.00,,,0.16,,2014-01-19 00:52:00,
2014-01-18 20:11:00,29.0,11.0,-100.00,SSW,212,6.0,13.0,47,0.00,,,0.15,,2014-01-19 01:11:00,
2014-01-18 20:22:00,29.0,13.0,-100.00,WSW,237,7.0,10.0,50,0.00,,,0.14,,2014-01-19 01:22:00,
2014-01-18 20:42:00,30.0,10.0,-100.00,SW,217,7.0,14.0,43,0.00,,,0.13,,2014-01-19 01:42:00,
2014-01-18 21:12:00,29.0,13.0,-100.00,South,186,5.0,7.0,51,0.00,,,0.11,,2014-01-19 02:12:00,
2014-01-18 21:22:00,29.0,12.0,-100.00,SW,215,7.0,12.0,49,0.00,,,0.10,,2014-01-19 02:22:00,
2014-01-18 21:42:00,29.0,11.0,-100.00,WSW,237,9.0,11.0,46,0.00,,,0.10,,2014-01-19 02:42:00,
2014-01-18 21:52:00,29.0,12.0,-100.00,SW,236,4.0,8.0,47,0.00,,,0.09,,2014-01-19 02:52:00,
2014-01-18 22:11:00,29.0,12.0,-100.00,SSW,205,4.0,6.0,49,0.00,,,0.07,,2014-01-19 03:11:00,
2014-01-18 22:22:00,29.0,12.0,-100.00,WSW,239,2.0,4.0,48,0.00,,,0.06,,2014-01-19 03:22:00,
2014-01-18 22:43:00,30.0,12.0,-100.00,WSW,257,5.0,7.0,48,0.00,,,0.06,,2014-01-19 03:43:00,
2014-01-18 22:53:00,30.0,13.0,-100.00,SSW,213,6.0,9.0,50,0.00,,,0.06,,2014-01-19 03:53:00,
2014-01-18 23:03:00,-999.0,-99.9,-100.00,SW,227,6.0,10.0,-999,0.00,,,0.06,,2014-01-19 04:03:00,
2014-01-18 23:13:00,30.0,12.0,-100.00,SW,227,6.0,10.0,47,0.00,,,0.06,,2014-01-19 04:13:00,
2014-01-18 23:23:00,30.0,12.0,-100.00,SW,232,5.0,7.0,47,0.00,,,0.04,,2014-01-19 04:23:00,
2014-01-18 23:43:00,30.0,12.0,-100.00,WSW,240,5.0,7.0,47,0.00,,,0.04,,2014-01-19 04:43:00,
2014-01-18 23:52:00,30.0,12.0,-100.00,SSW,208,3.0,5.0,47,0.00,,,0.02,,2014-01-19 04:52:00,